Regional Weather Roundup
Issued by NWS Sterling, VA

Home | Current Version | Previous Version | Graphics & Text | Print | Product List | Glossary On
Versions: 1 2 3 4 5 6 7 8 9 10 11 12 13 14 15 16 17 18 19 20 21 22 23 24 25 26 27 28 29 30 31 32 33 34 35 36 37 38 39 40 41 42 43 44 45 46 47 48 49
000
ASUS41 KLWX 040410
RWRLWX

REGIONAL WEATHER ROUNDUP
NATIONAL WEATHER SERVICE BALTIMORE MD/WASHINGTON DC
1100 PM EST TUE MAR 03 2015

Note: "FAIR" indicates few or no clouds below 12,000 feet
with no significant weather and/or obstructions to visibility.
 TC=TEMPERATURE CELSIUS

 * =Non NWS site. Station does not report precipitation (e.g. rain,
    snow, etc.), thunder, or fog.

DCZ001-MDZ009-015-VAZ040>042-051-053>054-040500-
WASHINGTON METRO

CITY           SKY/WX    TMP DP  RH WIND       PRES   REMARKS
WASHINGTON NAT CLOUDY    39  31  72 S12       29.92F
DULLES         MOCLDY    36  31  82 S17G25    29.88F WCI  26
ANDREWS AFB    CLOUDY    37  33  86 S13       29.90F WCI  29
FT BELVOIR     MOCLDY    38  33  82 VRB6      29.93F
COLLEGE PARK*  MOCLDY    37  32  81 S3        29.91F
LEESBURG*      CLOUDY    37  34  87 S10       29.88F
MANASSAS*      CLOUDY    37  34  87 SW9G16    29.92F
GAITHERSBURG*  MOCLDY    36  30  80 SW6G16    29.91F

$$

MDZ006>007-011-014-040500-
BALTIMORE METRO

CITY           SKY/WX    TMP DP  RH WIND       PRES   REMARKS
BWI AIRPORT    CLOUDY    34  30  85 SW5       29.89F
MD SCIENCE CTR   N/A     33  29  85 MISG      29.91F
MARTIN STATE   MOCLDY    34  32  93 SE3       29.91F
ANNAPOLIS      MOCLDY    35  30  82 S7        29.91F
FORT MEADE*    MOCLDY    32  32 100 SW10      29.91F WCI  24

$$

MDZ012-015-019>023-040500-
MARYLAND EASTERN SHORE

CITY           SKY/WX    TMP DP  RH WIND       PRES   REMARKS
OCEAN CITY     CLOUDY    37  34  89 SW12      29.97F
SALISBURY      CLOUDY    38  34  85 SW10      29.98F
BAY BRIDGE AP*   N/A     34  32  93 S10       29.92F WCI  26
CAMBRIDGE*     CLOUDY    36  34  93 S7        29.96F
EASTON*        CLOUDY    36  36 100 SW8       29.99F

$$

MDZ017>025-040500-
SOUTHERN MARYLAND

CITY           SKY/WX    TMP DP  RH WIND       PRES   REMARKS
PATUXENT RIVER CLOUDY    37  34  89 SW15      29.96F WCI  28
ST INIGOES     CLOUDY    37  32  82 SW14      29.98F HAZE    WCI  28
LEONARDTOWN*   CLOUDY    36  34  93 SW12G21   29.96F WCI  27

$$

MDZ003>005-040500-
NORTH CENTRAL MARYLAND

CITY           SKY/WX    TMP DP  RH WIND       PRES   REMARKS
FREDERICK*     CLOUDY    37  30  75 S8        29.88F
HAGERSTOWN APT CLOUDY    36  28  73 S5        29.83F
WESTMINSTER*   CLOUDY    34  30  86 S9        29.84F WCI  26

$$

MDZ501>502-040500-
WESTERN MARYLAND

CITY           SKY/WX    TMP DP  RH WIND       PRES   REMARKS
OAKLAND*       CLOUDY    50 N/A N/A SW16G29   29.75F FOG
CUMBERLAND*      N/A     34  34 100 MISG        N/A

$$

VAZ025>031-040500-
SHENANDOAH VALLEY

CITY           SKY/WX    TMP DP  RH WIND       PRES   REMARKS
WINCHESTER*    CLOUDY    41  30  65 SW9       29.82F
FRONT ROYAL*   MOCLDY    41  34  75 SW9G18    29.83F
LURAY*         FAIR      43  36  75 SW15G24   29.86F
NEW MARKET*    FAIR      37  32  82 W10       29.87F
STAUNTON*      CLOUDY    38  32  78 S8        29.94F
WAYNESBORO*    CLOUDY    34  30  86 CALM      29.92S

$$

WVZ021-048>050-054>055-040500-
EASTERN WEST VIRGINIA PANHANDLE

CITY           SKY/WX    TMP DP  RH WIND       PRES   REMARKS
MARTINSBURG    CLOUDY    39  28  64 S7        29.82F
PETERSBURG*    NOT AVBL

$$

VAZ036>039-050-040500-
CENTRAL FOOTHILLS

CITY           SKY/WX    TMP DP  RH WIND       PRES   REMARKS
CHARLOTTESVILL PTCLDY    35  30  82 S12       29.94F WCI  27
CULPEPER*      MOCLDY    37  34  87 SW12      29.93F
ORANGE*        CLOUDY    36  34  93 S12G20    29.96F WCI  27
GORDONSVILLE*  MOCLDY    35  32  89 SW15      29.94F WCI  25
WARRENTON*     FAIR      38  36  93 SW10G17   29.91F

$$

VAZ055>057-040500-
NORTH AND CENTRAL PIEDMONT

CITY           SKY/WX    TMP DP  RH WIND       PRES   REMARKS
FREDERICKSBRG* CLOUDY    40  37  86 SW13      29.96F
STAFFORD*      CLOUDY    39  34  82 SW12G17   29.99F

$$

NCZ024-NYZ072-PAZ021-071-VAZ022-071-040500-
OTHER REGIONAL OBSERVATIONS

CITY           SKY/WX    TMP DP  RH WIND       PRES   REMARKS
NEW YORK CITY  MIX PCPN  36  32  85 VRB7G24   29.91F
PHILADELPHIA   LGT RAIN  33  31  92 SW13      29.93F WCI  24
PITTSBURGH     LGT RAIN  46  45  96 W9G21     29.76R FOG
ROANOKE        LGT RAIN  38  35  89 CALM      30.01F
RICHMOND       CLOUDY    38  35  89 SW10      30.01F FOG
RALEIGH        DRIZZLE   37  34  89 SW7       30.10F FOG

$$

ANZ530>537-040500-
MARINE OBSERVATIONS

STATION/POSITION TIME  TEMP    WIND        PRES
                       AIR SEA DIR/SP/G
                 (UTC) (F)     (DEG/KT/KT) (MB)
THOMAS PT LIGHT  0400   34 31  180/ 15/ 15 1014.2F
BALT KEY BRIDGE  0300   33     170/  4/  5 1013.6F
COVE POINT       0300   35     230/ 17/ 21 1015.0F
LEWISETTA        0300   37 33  240/ 10/ 14 1015.7F
SOLOMONS ISLAND  0300      33                N/A

$$




USA.gov is the U.S. government's official web portal to all federal, state and local government web resources and services.